Location: Unspecified
(0.0000°N, 0.0000°E)
Time: 22:50:38
(UTC+00:00)

Vela 1A - Visible Passes

Search period start: 01 December 2021 00:00
Search period end: 11 December 2021 00:00
Orbit: 46245 x 172160 km, 12.2° (Epoch: 16 November)

Date Brightness Start Highest point End Pass type
(mag) Time Alt. Az. Time Alt. Az. Time Alt. Az.
01 Dec ? 16:12:16 10° ENE 21:49:26 78° N 03:26:17 10° WNW visible
02 Dec ? 18:16:33 10° ENE 23:58:54 78° N 05:44:34 10° W daylight
03 Dec ? 22:44:16 10° E 14:25:05 83° SSW 22:21:39 10° W visible
05 Dec ? 14:37:54 10° E 20:21:03 79° N 02:01:51 10° WNW visible
06 Dec ? 16:50:22 10° ENE 22:27:26 77° N 04:05:11 10° WNW visible
07 Dec ? 19:14:32 10° E 01:13:40 81° N 07:30:09 10° W visible
09 Dec ? 12:08:38 10° E 18:21:49 82° N 00:19:25 10° W visible
